CW4167 Weather Reports


Display with metric or nautical units.
time (UTC)temp
F
wind
direction
speed
MPH
gust
MPH
rain 1hr
in
rain 24hr
in
rain mn
in
humidity
%
barometer
mb
20260506031705 39 5 5.0 6.0 0.00 0.00 0.00 73 1008.8
20260506030205 39 17 4.0 5.0 0.00 0.00 0.00 75 1009.0
20260506025705 40 18 3.0 5.0 0.00 0.00 0.00 75 1009.0
20260506025205 40 12 4.0 5.0 0.00 0.00 0.00 75 1009.0
20260506023205 40 12 5.0 6.0 0.00 0.00 0.00 77 1009.1
20260506022704 40 15 5.0 5.0 0.00 0.00 0.00 78 1009.2
20260506022205 40 15 5.0 5.0 0.00 0.00 0.00 78 1009.2
20260506021705 40 17 5.0 6.0 0.00 0.00 0.00 79 1009.2
20260506021205 40 19 5.0 6.0 0.00 0.00 0.00 80 1009.3
20260506020205 40 19 5.0 5.0 0.00 0.00 0.00 80 1009.3
20260506015205 41 19 3.0 3.0 0.00 0.00 0.00 80 1009.4
20260506012205 42 20 0.0 0.0 0.00 0.00 0.00 79 1009.3
20260506011706 42 20 0.0 0.0 0.00 0.00 0.00 78 1009.3
20260506010207 43 20 1.0 2.0 0.00 0.00 0.00 77 1009.2
20260506005706 43 20 1.0 3.0 0.00 0.00 0.00 77 1009.1
20260506005205 43 20 3.0 6.0 0.00 0.00 0.00 77 1009.1
20260506004705 44 16 5.0 6.0 0.00 0.00 0.00 77 1009.1
20260506003205 44 14 9.0 10.0 0.00 0.00 0.00 78 1009.0
20260506001206 43 12 8.0 8.0 0.00 0.00 0.00 79 1009.0
20260506000705 43 10 7.0 7.0 0.00 0.00 0.00 79 1009.0
20260506000205 43 14 6.0 6.0 0.00 0.00 0.00 78 1008.9
20260505235705 43 19 0.0 0.0 0.00 0.00 0.00 78 1009.0
20260505234705 43 19 4.0 6.0 0.00 0.00 0.00 77 1009.0
20260505233205 44 25 4.0 7.0 0.00 0.00 0.00 76 1009.1
20260505232706 44 17 6.0 8.0 0.00 0.00 0.00 76 1009.0
20260505232205 45 16 6.0 8.0 0.00 0.00 0.00 76 1009.0
20260505231206 45 13 7.0 8.0 0.00 0.00 0.00 76 1009.0
20260505230708 45 9 7.0 8.0 0.00 0.00 0.00 76 1009.0
20260505230205 45 11 8.0 8.0 0.00 0.00 0.00 76 1009.0
20260505225706 45 8 6.0 8.0 0.00 0.00 0.00 76 1009.0
20260505225205 45 14 7.0 8.0 0.00 0.00 0.00 76 1009.0
20260505224705 45 15 8.0 8.0 0.00 0.00 0.00 76 1009.0
20260505222705 44 16 6.0 8.0 0.00 0.00 0.00 76 1009.1
20260505222205 44 14 5.0 7.0 0.00 0.00 0.00 75 1009.1
20260505220205 44 31 5.0 6.0 0.00 0.00 0.00 71 1009.2
20260505215206 45 27 5.0 6.0 0.00 0.00 0.00 70 1009.3
20260505214205 45 22 4.0 6.0 0.00 0.00 0.00 68 1009.4
20260505212704 45 11 8.0 8.0 0.00 0.00 0.00 67 1009.3
20260505211207 46 23 3.0 6.0 0.00 0.00 0.00 64 1009.4
20260505205205 46 14 8.0 9.0 0.00 0.00 0.00 61 1009.5
20260505204704 46 9 8.0 8.0 0.00 0.00 0.00 61 1009.5
20260505203706 45 13 9.0 13.0 0.00 0.00 0.00 60 1009.5
20260505202204 46 26 4.0 5.0 0.00 0.00 0.00 61 1009.5
20260505201704 46 26 3.0 6.0 0.00 0.00 0.00 60 1009.4
20260505200204 47 14 9.0 10.0 0.00 0.00 0.00 60 1009.5
20260505193205 48 12 6.0 7.0 0.00 0.00 0.00 61 1009.4
20260505192204 48 13 5.0 6.0 0.00 0.00 0.00 61 1009.3
20260505190206 50 22 4.0 5.0 0.00 0.00 0.00 58 1009.1
20260505185705 50 23 4.0 5.0 0.00 0.00 0.00 57 1009.1
20260505185205 50 23 3.0 3.0 0.00 0.00 0.00 56 1009.1
20260505184704 51 23 3.0 5.0 0.00 0.00 0.00 54 1009.1
20260505184204 51 21 5.0 5.0 0.00 0.00 0.00 55 1009.1
20260505183204 51 6 3.0 5.0 0.00 0.00 0.00 57 1009.2
20260505182704 51 6 4.0 6.0 0.00 0.00 0.00 57 1009.2
20260505182204 51 359 5.0 6.0 0.00 0.00 0.00 56 1009.2
20260505180704 52 0 6.0 7.0 0.00 0.00 0.00 54 1009.1
20260505180206 52 356 8.0 8.0 0.00 0.00 0.00 54 1009.1
20260505175205 52 352 7.0 8.0 0.00 0.00 0.00 52 1009.1
20260505174704 53 1 9.0 9.0 0.00 0.00 0.00 53 1009.1
20260505173706 53 352 7.0 13.0 0.00 0.00 0.00 54 1009.1
20260505173204 53 345 8.0 14.0 0.00 0.00 0.00 53 1009.2
20260505171706 53 339 5.0 13.0 0.00 0.00 0.00 51 1009.2
20260505171205 53 332 7.0 10.0 0.00 0.00 0.00 50 1009.2
20260505170704 53 0 6.0 13.0 0.00 0.00 0.00 49 1009.2
20260505170204 53 346 8.0 14.0 0.00 0.00 0.00 50 1009.2
20260505163205 54 0 9.0 15.0 0.00 0.00 0.00 50 1009.2
20260505153205 55 331 11.0 18.0 0.00 0.00 0.00 46 1009.2
20260505152204 55 359 13.0 18.0 0.00 0.00 0.00 44 1009.3
20260505140205 56 337 10.0 15.0 0.00 0.00 0.00 53 1009.4
20260505124704 56 353 10.0 16.0 0.00 0.00 0.00 57 1009.4
20260505122205 55 325 10.0 16.0 0.00 0.00 0.00 57 1009.5
20260505121704 56 340 15.0 17.0 0.00 0.00 0.00 58 1009.5
20260505115205 55 339 12.0 15.0 0.00 0.00 0.00 62 1009.4
20260505113705 56 338 7.0 13.0 0.00 0.00 0.00 64 1009.4
20260505112205 55 327 9.0 14.0 0.00 0.00 0.00 65 1009.5
20260505111206 55 336 9.0 14.0 0.00 0.00 0.00 65 1009.5
20260505102205 54 355 10.0 15.0 0.00 0.00 0.00 65 1009.7
20260505094205 55 3 8.0 15.0 0.00 0.00 0.00 65 1009.7
20260505093206 55 309 12.0 16.0 0.00 0.00 0.00 64 1009.7
20260505092704 55 340 10.0 17.0 0.00 0.00 0.00 65 1009.8
20260505090704 55 313 10.0 16.0 0.00 0.00 0.00 65 1009.7
20260505084706 53 338 9.0 14.0 0.00 0.00 0.00 68 1009.8
20260505084204 54 319 11.0 17.0 0.00 0.00 0.00 66 1009.8
20260505083205 54 333 7.0 14.0 0.00 0.00 0.00 71 1009.8
20260505082705 53 330 12.0 15.0 0.00 0.00 0.00 72 1009.8
20260505080206 52 311 10.0 16.0 0.00 0.00 0.00 70 1009.7
20260505075204 53 318 7.0 14.0 0.00 0.00 0.00 73 1009.6
20260505074205 51 344 11.0 17.0 0.00 0.00 0.00 75 1009.6
20260505073705 50 325 9.0 15.0 0.00 0.00 0.00 75 1009.6
20260505070705 51 313 10.0 15.0 0.00 0.00 0.00 73 1009.5
20260505070205 51 310 9.0 15.0 0.00 0.00 0.00 74 1009.5
20260505064705 50 338 11.0 14.0 0.00 0.00 0.00 74 1009.5
20260505064205 50 324 7.0 10.0 0.00 0.00 0.00 76 1009.6
20260505063706 50 315 9.0 14.0 0.00 0.00 0.00 75 1009.6
20260505063207 49 328 10.0 17.0 0.00 0.00 0.00 76 1009.5
20260505062704 49 326 11.0 16.0 0.00 0.00 0.00 77 1009.5
20260505062205 49 309 12.0 15.0 0.00 0.00 0.00 77 1009.5
20260505061705 49 322 12.0 17.0 0.00 0.00 0.00 77 1009.5
20260505061205 49 307 10.0 16.0 0.00 0.00 0.00 79 1009.5
20260505060705 49 322 8.0 16.0 0.00 0.00 0.00 80 1009.5
20260505060204 49 344 9.0 14.0 0.00 0.00 0.00 82 1009.4
20260505055706 48 317 7.0 10.0 0.00 0.00 0.00 84 1009.4
20260505055204 47 310 6.0 8.0 0.00 0.00 0.00 84 1009.4
20260505054705 47 305 5.0 7.0 0.00 0.00 0.00 83 1009.4
20260505053704 47 310 6.0 10.0 0.00 0.00 0.00 85 1009.4
20260505052206 46 291 7.0 9.0 0.00 0.00 0.00 87 1009.4
20260505041205 42 273 1.0 3.0 0.00 0.01 0.00 88 1009.3
20260505040206 41 267 1.0 5.0 0.00 0.01 0.00 88 1009.4
20260505035704 41 265 3.0 6.0 0.00 0.01 0.00 88 1009.5
20260505034205 41 256 0.0 5.0 0.00 0.01 0.00 87 1009.5
20260505033704 41 245 2.0 3.0 0.00 0.01 0.00 87 1009.5